This demonstration page uses our WeatherBlox Daily Observations layout. Learn more.

Left ArrowRight Arrow

39.51506, -84.39828

Hourly Observations for September 15, 2016

Temp ( °F °C ) Dew Point ( °F °C ) Humidity (%) Winds ( mph kmh ) Pressure ( in mb ) Visibility ( mi km ) Precip ( " mm )
12:15 am 00:15 Clear 69 20.8 62 16.5 77 77 NNE 5 7 30.18 1022 10 16 N/A
12:35 am 00:35 Clear 69 20.8 62 16.5 77 77 NNE 3 6 30.18 1022 10 16 N/A
12:55 am 00:55 Clear 69 20.8 62 16.5 77 77 N 5 7 30.21 1023 10 16 N/A
1:15 am 01:15 Clear 69 20.8 62 16.5 77 77 N 3 6 30.21 1023 10 16 N/A
1:35 am 01:35 Clear 67 19.5 59 15.2 76 76 N 3 6 30.21 1023 10 16 N/A
1:55 am 01:55 Clear 67 19.5 60 15.5 78 78 N 3 6 30.21 1023 10 16 N/A
2:15 am 02:15 Clear 67 19.5 60 15.3 77 77 N 3 6 30.21 1023 10 16 N/A
2:35 am 02:35 Clear 67 19.4 59 15.2 77 77 N N/A 30.21 1023 10 16 N/A
2:55 am 02:55 Clear 64 18 57 14.1 78 78 N 3 6 30.21 1023 10 16 N/A
3:15 am 03:15 Clear 64 18 58 14.2 79 79 N 5 7 30.18 1022 10 16 N/A
3:35 am 03:35 Clear 64 18 58 14.2 79 79 N 3 6 30.18 1022 10 16 N/A
3:55 am 03:55 Partly Cloudy 64 18 58 14.3 79 79 N 3 6 30.18 1022 10 16 N/A
4:15 am 04:15 Clear 63 17.3 57 13.7 80 80 N 3 6 30.18 1022 10 16 N/A
4:35 am 04:35 Clear 63 17.3 56 13.6 79 79 N 3 6 30.18 1022 10 16 N/A
4:55 am 04:55 Clear 63 17.3 56 13.6 79 79 N 3 6 30.18 1022 10 16 N/A
5:15 am 05:15 Clear 63 17 56 13.5 80 80 N 5 7 30.21 1023 10 16 N/A
5:35 am 05:35 Clear 63 17 56 13.4 79 79 N 3 6 30.21 1023 10 16 N/A
5:55 am 05:55 Clear 62 16.7 56 13.1 79 79 N N/A 30.21 1023 10 16 N/A
6:15 am 06:15 Clear 62 16.6 55 13 79 79 N 3 6 30.24 1024 10 16 N/A
6:35 am 06:35 Clear 62 16.6 55 13 79 79 N 3 6 30.24 1024 10 16 N/A
6:55 am 06:55 Clear 61 16.1 55 12.7 80 80 N 3 6 30.24 1024 10 16 N/A
7:15 am 07:15 Clear 61 16.2 55 12.7 80 80 N N/A 30.24 1024 10 16 N/A
7:35 am 07:35 Sunny 61 16 55 12.7 81 81 N 5 7 30.24 1024 10 16 N/A
7:55 am 07:55 Sunny 61 16 55 12.7 81 81 N N/A 30.24 1024 10 16 N/A
8:15 am 08:15 Sunny 62 16.6 56 13.1 80 80 N 3 6 30.24 1024 10 16 N/A
8:35 am 08:35 Sunny 64 18 57 13.8 77 77 NNE 6 9 30.21 1023 10 16 N/A
8:55 am 08:55 Sunny 64 18 55 13 73 73 NNE 7 11 30.21 1023 10 16 N/A
9:15 am 09:15 Sunny 67 19.5 57 14.1 71 71 NE 6 9 30.21 1023 10 16 N/A
9:35 am 09:35 Sunny 69 20.5 58 14.7 70 70 NE 5 7 30.21 1023 10 16 N/A
9:55 am 09:55 Sunny 69 20.8 58 14.6 68 68 NNE 7 11 30.21 1023 10 16 N/A
10:15 am 10:15 Sunny 69 20.8 58 14.4 67 67 NE 6 9 30.21 1023 10 16 N/A
10:35 am 10:35 Sunny 69 20.8 58 14.3 66 66 NE 7 11 30.21 1023 10 16 N/A
10:55 am 10:55 Sunny 69 20.8 57 14 65 65 NNE 8 13 30.21 1023 10 16 N/A
11:15 am 11:15 Sunny 69 20.8 56 13.5 63 63 NE 7 11 30.21 1023 10 16 N/A
11:35 am 11:35 Sunny 71 21.9 58 14.4 63 63 ENE 6 9 30.21 1023 10 16 N/A
11:55 am 11:55 Sunny 74 23.6 60 15.5 61 61 E 5 7 30.21 1023 10 16 N/A
12:15 pm 12:15 Sunny 74 23.6 59 15 59 59 NE 5 7 30.21 1023 10 16 N/A
12:35 pm 12:35 Sunny 74 23.6 58 14.6 57 57 NNE 7 11 30.21 1023 10 16 N/A
12:55 pm 12:55 Sunny 74 23.6 57 14.1 55 55 NNE 8 13 30.21 1023 10 16 N/A
1:15 pm 13:15 Sunny 74 23.6 57 13.7 54 54 NE 7 11 30.21 1023 10 16 N/A
1:35 pm 13:35 Sunny 74 23.6 57 13.9 55 55 N 5 7 30.18 1022 10 16 N/A
1:55 pm 13:55 Sunny 74 23.6 56 13.4 53 53 N 6 9 30.18 1022 10 16 N/A
2:15 pm 14:15 Sunny 74 23.6 56 13.2 52 52 NNE 7 11 30.18 1022 10 16 N/A
2:35 pm 14:35 Sunny 76 24.2 57 13.9 53 53 N 7 11 30.18 1022 10 16 N/A
2:55 pm 14:55 Sunny 77 24.9 57 14.1 51 51 N 7 11 30.18 1022 10 16 N/A
3:15 pm 15:15 Sunny 77 25.1 56 13.3 48 48 NE 5 7 30.15 1021 10 16 N/A
3:35 pm 15:35 Sunny 77 25.1 56 13.3 48 48 N N/A 30.15 1021 10 16 N/A
3:55 pm 15:55 Sunny 77 25.1 56 13.1 47 47 ENE 6 9 30.15 1021 10 16 N/A
4:15 pm 16:15 Sunny 77 25.1 55 12.6 46 46 NNE 5 7 30.15 1021 10 16 N/A
4:35 pm 16:35 Sunny 77 25.1 54 12.4 45 45 ENE 6 9 30.12 1020 10 16 N/A
4:55 pm 16:55 Sunny 77 25.2 54 12.3 45 45 NE 3 6 30.12 1020 10 16 N/A
5:15 pm 17:15 Sunny 80 26.5 56 13.2 44 44 NNE 6 9 30.12 1020 10 16 N/A
5:35 pm 17:35 Sunny 80 26.5 56 13.3 44 44 E 3 6 30.12 1020 10 16 N/A
5:55 pm 17:55 Sunny 80 26.5 56 13.2 44 44 N 3 6 30.12 1020 10 16 N/A
6:15 pm 18:15 Sunny 79 26 55 12.8 44 44 NNE 5 7 30.12 1020 10 16 N/A
6:35 pm 18:35 Sunny 78 25.3 55 13 47 47 NE 3 6 30.12 1020 10 16 N/A
6:55 pm 18:55 Sunny 77 25.1 56 13.1 47 47 NE 5 7 30.12 1020 10 16 N/A
7:15 pm 19:15 Sunny 77 25.1 58 14.3 51 51 NE 3 6 30.12 1020 10 16 N/A
7:35 pm 19:35 Sunny 74 23.6 61 16.1 63 63 N N/A 30.12 1020 10 16 N/A
7:55 pm 19:55 Clear 71 21.8 60 15.7 68 68 N N/A 30.12 1020 10 16 N/A
8:15 pm 20:15 Clear 69 20.8 60 15.4 71 71 N 3 6 30.12 1020 10 16 N/A
8:35 pm 20:35 Clear 69 20.8 60 15.8 73 73 N 3 6 30.12 1020 10 16 N/A
8:55 pm 20:55 Clear 69 20.8 62 16.5 77 77 N 3 6 30.15 1021 10 16 N/A
9:15 pm 21:15 Clear 69 20.4 61 16.1 76 76 N 3 6 30.15 1021 10 16 N/A
9:35 pm 21:35 Clear 67 19.5 59 15.2 76 76 N N/A 30.15 1021 10 16 N/A
9:55 pm 21:55 Clear 67 19.5 60 15.3 77 77 N N/A 30.15 1021 10 16 N/A
10:15 pm 22:15 Clear 66 19 58 14.7 76 76 N N/A 30.15 1021 10 16 N/A
10:35 pm 22:35 Clear 64 18 58 14.3 79 79 N N/A 30.15 1021 10 16 N/A
10:55 pm 22:55 Clear 63 17 56 13.6 81 81 N N/A 30.15 1021 10 16 N/A
11:15 pm 23:15 Clear 63 17 57 13.7 81 81 N N/A 30.15 1021 10 16 N/A
11:35 pm 23:35 Clear 62 16.6 56 13.1 80 80 N N/A 30.18 1022 10 16 N/A
11:55 pm 23:55 Clear 62 16.6 56 13.3 81 81 N N/A 30.18 1022 10 16 N/A

Powered by AerisWeather